Flag for Germany Weather past 2 weeks in Herne, North Rhine-Westphalia, Germany

Now
77 °F

Clear.


Feels Like: 79 °F
Forecast: 69 / 88 °F
Wind: 3 mph from Northeast

Location: Dortmund / Wickede

Current Time: Jul 4, 2015 at 2:17:44 AM

Latest Report: Jul 3, 2015 at 10:50 PM


Visibility: 10 mi

Pressure: 30.18 "Hg

Humidity: 61%

Dew point: 63 °F

Location of HerneLocation

Historic Weather in Herne — Graph

°F

Herne temperature yesterday

Maximum temperature yesterday: 88 °F (at 2:50 PM)
Minimum temperature yesterday: 64 °F (at 5:50 AM)
Average temperature yesterday: 80 °F

Past Weeks' High & Low Weather Summary

 TemperatureHumidityPressure
High97 °F (Jul 2, 2:50 PM)94% (Jun 20, 6:20 AM)30.24 "Hg (Jun 20, 6:20 AM)
Low48 °F (Jun 20, 6:20 AM)22% (Jul 2, 3:20 PM)29.68 "Hg (Jun 22, 7:50 PM)
Average66 °F61%30.07 "Hg
* Reported Jun 18 10:20 PM — Jul 3 10:50 PM, Herne, Weather by CustomWeather, © 2015

Note: Actual official high and low records may vary slightly from our data, if they occured in-between our weather recording intervals... More about our weather records

Advertising

Herne weather history for previous 24 hours

 ConditionsComfort  
Time TempWeatherWind HumidityBarometerVisibility
10:50 PM
Fri, Jul 3
77 °FClear.3 mph61%30.18 "Hg10 mi
10:20 PM77 °FSunny.6 mph61%30.18 "Hg10 mi
9:50 PM79 °FSunny.6 mph58%30.18 "Hg10 mi
9:20 PM81 °FSunny.7 mph54%30.18 "Hg10 mi
8:50 PM82 °FSunny.7 mph51%30.18 "Hg10 mi
8:20 PM84 °FSunny.7 mph48%30.18 "Hg10 mi
7:50 PM84 °FPassing clouds.6 mph48%30.18 "HgN/A
7:20 PM84 °FPassing clouds.8 mph51%30.18 "HgN/A
6:50 PM86 °FPassing clouds.7 mph46%30.18 "HgN/A
6:20 PM86 °FPassing clouds.7 mph46%30.18 "HgN/A
5:50 PM86 °FPassing clouds.8 mph49%30.18 "HgN/A
5:20 PM84 °FPassing clouds.6 mph48%30.18 "HgN/A
4:50 PM88 °FSunny.6 mph43%30.21 "Hg10 mi
4:20 PM88 °FPassing clouds.7 mph43%30.21 "HgN/A
3:50 PM88 °FSunny.5 mph43%30.21 "Hg10 mi
3:20 PM88 °FSunny.5 mph40%30.21 "Hg10 mi
2:50 PM88 °FSunny.6 mph43%30.21 "Hg10 mi
2:20 PM84 °FSunny.3 mph45%30.21 "Hg10 mi
1:50 PM84 °FPassing clouds.5 mph45%30.21 "HgN/A
1:20 PM84 °FPassing clouds.5 mph48%30.21 "HgN/A
12:50 PM82 °FPassing clouds.7 mph55%30.24 "HgN/A
12:20 PM82 °FPassing clouds.8 mph51%30.24 "HgN/A
11:50 AM81 °FPassing clouds.8 mph54%30.24 "HgN/A
11:20 AM81 °FPassing clouds.6 mph54%30.24 "HgN/A
10:50 AM79 °FPassing clouds.8 mph54%30.24 "HgN/A
10:20 AM77 °FPassing clouds.7 mph61%30.24 "HgN/A
9:50 AM75 °FSunny.7 mph65%30.24 "Hg10 mi
9:20 AM75 °FSunny.5 mph65%30.24 "Hg10 mi
8:50 AM73 °FSunny.5 mph69%30.24 "Hg10 mi
8:20 AM72 °FSunny.3 mph73%30.24 "Hg10 mi
7:50 AM70 °FSunny.2 mph78%30.24 "Hg10 mi
7:20 AM70 °FSunny.2 mph78%30.24 "Hg10 mi
6:50 AM68 °FSunny.3 mph83%30.24 "Hg10 mi
6:20 AM66 °FSunny.3 mph83%30.24 "Hg10 mi
5:50 AM64 °FClear.3 mph88%30.24 "Hg10 mi
5:20 AM66 °FPassing clouds.5 mph88%30.21 "HgN/A
Weather by CustomWeather, © 2015

See weather overviewHow to use our weather pages